Time,TemperatureF,DewpointF,PressureIn,WindDirection,WindDirectionDegrees,WindSpeedMPH,WindSpeedGustMPH,Humidity,HourlyPrecipIn,Conditions,Clouds,dailyrainin,SoftwareType,DateUTC
2013-01-09 00:03:00,34.0,25.0,29.92,SSW,194,0.0,0.0,69,0.00,,,0.02,,2013-01-09 05:03:00,
2013-01-09 00:12:00,34.0,25.0,29.92,SSW,194,0.0,0.0,69,0.00,,,0.02,,2013-01-09 05:12:00,
2013-01-09 00:22:00,35.0,25.0,29.92,SW,228,0.0,0.0,67,0.00,,,0.02,,2013-01-09 05:22:00,
2013-01-09 00:33:00,36.0,25.0,29.90,SSW,201,0.0,0.0,65,0.00,,,0.02,,2013-01-09 05:33:00,
2013-01-09 00:42:00,36.0,25.0,29.90,SSW,201,0.0,0.0,65,0.00,,,0.02,,2013-01-09 05:42:00,
2013-01-09 00:53:00,36.0,25.0,29.90,SW,214,0.0,0.0,65,0.00,,,0.02,,2013-01-09 05:53:00,
2013-01-09 01:02:00,36.0,25.0,29.89,SSW,211,0.0,0.0,64,0.00,,,0.02,,2013-01-09 06:02:00,
2013-01-09 01:12:00,36.0,25.0,29.89,SSW,211,0.0,0.0,64,0.00,,,0.02,,2013-01-09 06:12:00,
2013-01-09 01:22:00,36.0,25.0,29.88,SW,223,0.0,0.0,65,0.00,,,0.02,,2013-01-09 06:22:00,
2013-01-09 01:32:00,36.0,25.0,29.87,SSW,207,0.0,0.0,65,0.00,,,0.02,,2013-01-09 06:32:00,
2013-01-09 01:42:00,36.0,25.0,29.87,SSW,207,0.0,0.0,65,0.00,,,0.02,,2013-01-09 06:42:00,
2013-01-09 01:52:00,36.0,25.0,29.86,SSW,211,0.0,0.0,65,0.00,,,0.02,,2013-01-09 06:52:00,
2013-01-09 02:02:00,36.0,25.0,29.84,SSW,206,0.0,0.0,64,0.00,,,0.02,,2013-01-09 07:02:00,
2013-01-09 02:12:00,36.0,25.0,29.84,SSW,206,0.0,0.0,64,0.00,,,0.02,,2013-01-09 07:12:00,
2013-01-09 02:22:00,36.0,25.0,29.84,SSW,198,0.0,0.0,64,0.00,,,0.02,,2013-01-09 07:22:00,
2013-01-09 02:32:00,36.0,25.0,29.83,SSW,194,0.0,0.0,64,0.00,,,0.02,,2013-01-09 07:32:00,
2013-01-09 02:42:00,36.0,25.0,29.83,SSW,194,0.0,0.0,64,0.00,,,0.02,,2013-01-09 07:42:00,
2013-01-09 02:52:00,36.0,25.0,29.83,SSW,206,0.0,0.0,64,0.00,,,0.02,,2013-01-09 07:52:00,
2013-01-09 03:02:00,37.0,26.0,29.82,SSW,197,0.0,0.0,63,0.00,,,0.02,,2013-01-09 08:02:00,
2013-01-09 03:12:00,37.0,26.0,29.82,SSW,197,0.0,0.0,63,0.00,,,0.02,,2013-01-09 08:12:00,
2013-01-09 03:22:00,37.0,26.0,29.80,SW,216,0.0,0.0,64,0.00,,,0.02,,2013-01-09 08:22:00,
2013-01-09 03:32:00,37.0,26.0,29.80,SSW,207,0.0,0.0,64,0.00,,,0.02,,2013-01-09 08:32:00,
2013-01-09 03:42:00,37.0,26.0,29.80,SSW,207,0.0,0.0,64,0.00,,,0.02,,2013-01-09 08:42:00,
2013-01-09 03:53:00,37.0,26.0,29.80,SSW,208,0.0,0.0,64,0.00,,,0.02,,2013-01-09 08:53:00,
2013-01-09 04:02:00,37.0,26.0,29.80,SSW,209,0.0,0.0,65,0.00,,,0.02,,2013-01-09 09:02:00,
2013-01-09 04:12:00,37.0,26.0,29.80,SSW,209,0.0,0.0,65,0.00,,,0.02,,2013-01-09 09:12:00,
2013-01-09 04:22:00,37.0,26.0,29.80,SSW,207,0.0,0.0,65,0.00,,,0.02,,2013-01-09 09:22:00,
2013-01-09 04:32:00,37.0,27.0,29.78,SSW,207,0.0,0.0,67,0.00,,,0.02,,2013-01-09 09:32:00,
2013-01-09 04:42:00,37.0,27.0,29.78,SSW,207,0.0,0.0,67,0.00,,,0.02,,2013-01-09 09:42:00,
2013-01-09 04:53:00,37.0,27.0,29.78,SSW,207,0.0,0.0,67,0.00,,,0.02,,2013-01-09 09:53:00,
2013-01-09 05:02:00,38.0,28.0,29.78,SW,232,0.0,0.0,68,0.00,,,0.02,,2013-01-09 10:02:00,
2013-01-09 05:12:00,38.0,28.0,29.78,SW,232,0.0,0.0,68,0.00,,,0.02,,2013-01-09 10:12:00,
2013-01-09 05:22:00,38.0,29.0,29.78,WSW,252,0.0,0.0,70,0.00,,,0.02,,2013-01-09 10:22:00,
2013-01-09 05:32:00,39.0,31.0,29.77,SW,227,0.0,0.0,72,0.00,,,0.02,,2013-01-09 10:32:00,
2013-01-09 05:42:00,39.0,31.0,29.77,SW,227,0.0,0.0,72,0.00,,,0.02,,2013-01-09 10:42:00,
2013-01-09 05:52:00,39.0,31.0,29.76,SW,221,0.0,0.0,72,0.00,,,0.02,,2013-01-09 10:52:00,
2013-01-09 06:02:00,39.0,31.0,29.76,SW,221,0.0,0.0,72,0.00,,,0.02,,2013-01-09 11:02:00,
2013-01-09 06:12:00,39.0,31.0,29.76,SW,221,0.0,0.0,72,0.00,,,0.02,,2013-01-09 11:12:00,
2013-01-09 06:22:00,39.0,31.0,29.75,SW,234,0.0,0.0,72,0.00,,,0.02,,2013-01-09 11:22:00,
2013-01-09 06:32:00,39.0,31.0,29.75,SW,230,0.0,0.0,72,0.00,,,0.02,,2013-01-09 11:32:00,
2013-01-09 06:42:00,39.0,31.0,29.75,SW,230,0.0,0.0,72,0.00,,,0.02,,2013-01-09 11:42:00,
2013-01-09 06:53:00,39.0,31.0,29.75,WSW,239,0.0,0.0,72,0.00,,,0.02,,2013-01-09 11:53:00,
2013-01-09 07:03:00,40.0,32.0,29.75,SW,230,0.0,0.0,72,0.00,,,0.02,,2013-01-09 12:03:00,
2013-01-09 07:12:00,40.0,32.0,29.75,SW,230,0.0,0.0,72,0.00,,,0.02,,2013-01-09 12:12:00,
2013-01-09 07:23:00,40.0,32.0,29.76,WSW,241,0.0,0.0,73,0.00,,,0.02,,2013-01-09 12:23:00,
2013-01-09 07:33:00,39.0,32.0,29.77,West,265,0.0,0.0,75,0.00,,,0.02,,2013-01-09 12:33:00,
2013-01-09 07:43:00,39.0,32.0,29.77,West,265,0.0,0.0,75,0.00,,,0.02,,2013-01-09 12:43:00,
2013-01-09 07:53:00,39.0,32.0,29.78,West,268,0.0,0.0,75,0.00,,,0.02,,2013-01-09 12:53:00,
2013-01-09 08:03:00,39.0,32.0,29.79,WSW,258,0.0,0.0,75,0.00,,,0.02,,2013-01-09 13:03:00,
2013-01-09 08:12:00,39.0,32.0,29.79,WSW,258,0.0,0.0,75,0.00,,,0.02,,2013-01-09 13:12:00,
2013-01-09 08:23:00,39.0,32.0,29.80,West,262,0.0,0.0,77,0.00,,,0.02,,2013-01-09 13:23:00,
2013-01-09 08:33:00,38.0,31.0,29.80,West,275,0.0,0.0,77,0.00,,,0.02,,2013-01-09 13:33:00,
2013-01-09 08:43:00,38.0,31.0,29.80,West,275,0.0,0.0,77,0.00,,,0.02,,2013-01-09 13:43:00,
2013-01-09 08:53:00,38.0,31.0,29.81,West,263,0.0,0.0,75,0.00,,,0.02,,2013-01-09 13:53:00,
2013-01-09 09:03:00,38.0,30.0,29.83,West,270,0.0,0.0,74,0.00,,,0.02,,2013-01-09 14:03:00,
2013-01-09 09:12:00,38.0,31.0,29.83,West,269,0.0,0.0,75,0.00,,,0.02,,2013-01-09 14:12:00,
2013-01-09 09:23:00,38.0,31.0,29.83,West,269,0.0,0.0,75,0.00,,,0.02,,2013-01-09 14:23:00,
2013-01-09 09:33:00,38.0,31.0,29.84,West,277,0.0,0.0,76,0.00,,,0.02,,2013-01-09 14:33:00,
2013-01-09 09:43:00,38.0,31.0,29.84,West,277,0.0,0.0,76,0.00,,,0.02,,2013-01-09 14:43:00,
2013-01-09 09:53:00,38.0,31.0,29.85,WSW,257,0.0,0.0,76,0.00,,,0.02,,2013-01-09 14:53:00,
2013-01-09 10:03:00,38.0,31.0,29.85,West,263,0.0,0.0,76,0.00,,,0.02,,2013-01-09 15:03:00,
2013-01-09 10:13:00,38.0,31.0,29.85,West,263,0.0,0.0,76,0.00,,,0.02,,2013-01-09 15:13:00,
2013-01-09 10:23:00,38.0,31.0,29.85,WSW,256,0.0,0.0,75,0.00,,,0.02,,2013-01-09 15:23:00,
2013-01-09 10:33:00,38.0,30.0,29.84,West,277,0.0,0.0,74,0.00,,,0.02,,2013-01-09 15:33:00,
2013-01-09 10:42:00,38.0,30.0,29.84,West,277,0.0,0.0,74,0.00,,,0.02,,2013-01-09 15:42:00,
2013-01-09 10:53:00,38.0,30.0,29.85,West,278,0.0,0.0,72,0.00,,,0.02,,2013-01-09 15:53:00,
2013-01-09 11:03:00,38.0,29.0,29.85,West,263,0.0,0.0,70,0.00,,,0.02,,2013-01-09 16:03:00,
2013-01-09 11:12:00,38.0,29.0,29.85,West,263,0.0,0.0,70,0.00,,,0.02,,2013-01-09 16:12:00,
2013-01-09 11:23:00,39.0,30.0,29.85,West,276,0.0,0.0,69,0.00,,,0.02,,2013-01-09 16:23:00,
2013-01-09 11:33:00,39.0,30.0,29.84,West,272,0.0,0.0,69,0.00,,,0.02,,2013-01-09 16:33:00,
2013-01-09 11:43:00,39.0,30.0,29.84,West,272,0.0,0.0,69,0.00,,,0.02,,2013-01-09 16:43:00,
2013-01-09 11:53:00,39.0,30.0,29.85,West,268,0.0,0.0,70,0.00,,,0.02,,2013-01-09 16:53:00,
2013-01-09 12:03:00,38.0,30.0,29.85,West,275,0.0,0.0,72,0.00,,,0.02,,2013-01-09 17:03:00,
2013-01-09 12:12:00,38.0,30.0,29.85,West,275,0.0,0.0,72,0.00,,,0.02,,2013-01-09 17:12:00,
2013-01-09 12:23:00,38.0,30.0,29.85,WNW,283,0.0,0.0,74,0.00,,,0.01,,2013-01-09 17:23:00,
2013-01-09 12:33:00,38.0,30.0,29.86,WNW,299,0.0,0.0,72,0.00,,,0.01,,2013-01-09 17:33:00,
2013-01-09 12:43:00,38.0,30.0,29.86,WNW,299,0.0,0.0,72,0.00,,,0.01,,2013-01-09 17:43:00,
2013-01-09 12:53:00,37.0,27.0,29.87,West,276,0.0,0.0,68,0.00,,,0.01,,2013-01-09 17:53:00,
2013-01-09 13:03:00,37.0,28.0,29.88,West,281,0.0,0.0,69,0.00,,,0.01,,2013-01-09 18:03:00,
2013-01-09 13:12:00,37.0,28.0,29.88,West,281,0.0,0.0,69,0.00,,,0.01,,2013-01-09 18:12:00,
2013-01-09 13:24:00,37.0,28.0,29.88,West,273,0.0,0.0,69,0.00,,,0.01,,2013-01-09 18:24:00,
2013-01-09 13:33:00,37.0,28.0,29.89,West,273,0.0,0.0,71,0.00,,,0.00,,2013-01-09 18:33:00,
2013-01-09 13:43:00,37.0,28.0,29.89,West,273,0.0,0.0,71,0.00,,,0.00,,2013-01-09 18:43:00,
2013-01-09 13:53:00,37.0,28.0,29.91,West,267,0.0,0.0,71,0.00,,,0.00,,2013-01-09 18:53:00,
2013-01-09 14:03:00,37.0,28.0,29.91,West,273,0.0,0.0,71,0.00,,,0.00,,2013-01-09 19:03:00,
2013-01-09 14:13:00,37.0,28.0,29.91,West,273,0.0,0.0,71,0.00,,,0.00,,2013-01-09 19:13:00,
2013-01-09 14:23:00,37.0,28.0,29.92,WNW,293,0.0,0.0,70,0.00,,,0.00,,2013-01-09 19:23:00,
2013-01-09 14:33:00,37.0,28.0,29.93,West,266,0.0,0.0,70,0.00,,,0.00,,2013-01-09 19:33:00,
2013-01-09 14:43:00,37.0,28.0,29.93,West,266,0.0,0.0,70,0.00,,,0.00,,2013-01-09 19:43:00,
2013-01-09 14:53:00,37.0,28.0,29.94,West,273,0.0,0.0,69,0.00,,,0.00,,2013-01-09 19:53:00,
2013-01-09 15:03:00,37.0,27.0,29.95,West,272,0.0,0.0,67,0.00,,,0.00,,2013-01-09 20:03:00,
2013-01-09 15:12:00,37.0,27.0,29.95,West,272,0.0,0.0,67,0.00,,,0.00,,2013-01-09 20:12:00,
2013-01-09 15:23:00,38.0,27.0,29.96,WNW,294,0.0,0.0,65,0.00,,,0.00,,2013-01-09 20:23:00,
2013-01-09 15:33:00,38.0,27.0,29.97,West,280,0.0,0.0,65,0.00,,,0.00,,2013-01-09 20:33:00,
2013-01-09 15:43:00,38.0,27.0,29.97,West,280,0.0,0.0,65,0.00,,,0.00,,2013-01-09 20:43:00,
2013-01-09 15:53:00,38.0,27.0,29.98,WNW,289,0.0,0.0,64,0.00,,,0.00,,2013-01-09 20:53:00,
2013-01-09 16:03:00,38.0,27.0,30.01,WNW,290,0.0,0.0,64,0.00,,,0.00,,2013-01-09 21:03:00,
2013-01-09 16:13:00,38.0,27.0,30.01,WNW,290,0.0,0.0,64,0.00,,,0.00,,2013-01-09 21:13:00,
2013-01-09 16:23:00,38.0,27.0,30.02,West,272,0.0,0.0,63,0.00,,,0.00,,2013-01-09 21:23:00,
2013-01-09 16:33:00,38.0,26.0,30.03,WNW,285,0.0,0.0,62,0.00,,,0.00,,2013-01-09 21:33:00,
2013-01-09 16:43:00,38.0,26.0,30.03,WNW,285,0.0,0.0,62,0.00,,,0.00,,2013-01-09 21:43:00,
2013-01-09 16:53:00,38.0,27.0,30.05,WNW,286,0.0,0.0,64,0.00,,,0.00,,2013-01-09 21:53:00,
2013-01-09 17:03:00,38.0,27.0,30.07,NW,314,0.0,0.0,64,0.00,,,0.00,,2013-01-09 22:03:00,
2013-01-09 17:12:00,38.0,27.0,30.07,NW,314,0.0,0.0,64,0.00,,,0.00,,2013-01-09 22:12:00,
2013-01-09 17:23:00,37.0,26.0,30.08,NW,321,0.0,0.0,64,0.00,,,0.00,,2013-01-09 22:23:00,
2013-01-09 17:33:00,37.0,26.0,30.10,WNW,300,0.0,0.0,63,0.00,,,0.00,,2013-01-09 22:33:00,
2013-01-09 17:43:00,37.0,26.0,30.10,WNW,300,0.0,0.0,63,0.00,,,0.00,,2013-01-09 22:43:00,
2013-01-09 17:52:00,37.0,26.0,30.11,WNW,303,0.0,0.0,63,0.00,,,0.00,,2013-01-09 22:52:00,
2013-01-09 18:03:00,37.0,26.0,30.12,WNW,286,0.0,0.0,64,0.00,,,0.00,,2013-01-09 23:03:00,
2013-01-09 18:13:00,37.0,26.0,30.12,WNW,286,0.0,0.0,64,0.00,,,0.00,,2013-01-09 23:13:00,
2013-01-09 18:23:00,37.0,26.0,30.14,NNW,345,0.0,0.0,65,0.00,,,0.00,,2013-01-09 23:23:00,
2013-01-09 18:33:00,37.0,26.0,30.15,NW,310,0.0,0.0,63,0.00,,,0.00,,2013-01-09 23:33:00,
2013-01-09 18:43:00,37.0,26.0,30.15,NW,310,0.0,0.0,63,0.00,,,0.00,,2013-01-09 23:43:00,
2013-01-09 18:53:00,37.0,25.0,30.17,NW,315,0.0,0.0,62,0.00,,,0.00,,2013-01-09 23:53:00,
2013-01-09 19:03:00,37.0,25.0,30.18,NW,312,0.0,0.0,61,0.00,,,0.00,,2013-01-10 00:03:00,
2013-01-09 19:12:00,37.0,25.0,30.18,NW,312,0.0,0.0,61,0.00,,,0.00,,2013-01-10 00:12:00,
2013-01-09 19:22:00,37.0,25.0,30.20,NW,307,0.0,0.0,62,0.00,,,0.00,,2013-01-10 00:22:00,
2013-01-09 19:32:00,37.0,26.0,30.22,West,277,0.0,0.0,63,0.00,,,0.00,,2013-01-10 00:32:00,
2013-01-09 19:42:00,37.0,26.0,30.22,West,277,0.0,0.0,63,0.00,,,0.00,,2013-01-10 00:42:00,
2013-01-09 19:53:00,37.0,25.0,30.24,WNW,293,0.0,0.0,62,0.00,,,0.00,,2013-01-10 00:53:00,
2013-01-09 20:02:00,37.0,25.0,30.25,North,349,0.0,0.0,62,0.00,,,0.00,,2013-01-10 01:02:00,
2013-01-09 20:12:00,37.0,25.0,30.25,North,349,0.0,0.0,62,0.00,,,0.00,,2013-01-10 01:12:00,
2013-01-09 20:22:00,37.0,26.0,30.26,NW,314,0.0,0.0,63,0.00,,,0.00,,2013-01-10 01:22:00,
2013-01-09 20:33:00,36.0,25.0,30.27,NNW,336,0.0,0.0,64,0.00,,,0.00,,2013-01-10 01:33:00,
2013-01-09 20:43:00,36.0,25.0,30.27,NNW,336,0.0,0.0,64,0.00,,,0.00,,2013-01-10 01:43:00,
2013-01-09 20:53:00,36.0,25.0,30.27,NNW,345,0.0,0.0,64,0.00,,,0.00,,2013-01-10 01:53:00,
2013-01-09 21:03:00,36.0,25.0,30.28,NW,322,0.0,0.0,64,0.00,,,0.00,,2013-01-10 02:03:00,
2013-01-09 21:12:00,36.0,25.0,30.28,NW,322,0.0,0.0,64,0.00,,,0.00,,2013-01-10 02:12:00,
2013-01-09 21:22:00,36.0,25.0,30.28,North,3,0.0,0.0,65,0.00,,,0.00,,2013-01-10 02:22:00,
2013-01-09 21:32:00,35.0,25.0,30.28,North,356,0.0,0.0,66,0.00,,,0.00,,2013-01-10 02:32:00,
2013-01-09 21:42:00,35.0,25.0,30.28,North,356,0.0,0.0,66,0.00,,,0.00,,2013-01-10 02:42:00,
2013-01-09 21:53:00,35.0,25.0,30.28,North,356,0.0,0.0,66,0.00,,,0.00,,2013-01-10 02:53:00,
2013-01-09 22:03:00,35.0,26.0,30.30,NNW,331,0.0,0.0,68,0.00,,,0.00,,2013-01-10 03:03:00,
2013-01-09 22:12:00,35.0,26.0,30.30,NNW,331,0.0,0.0,68,0.00,,,0.00,,2013-01-10 03:12:00,
2013-01-09 22:22:00,34.0,25.0,30.32,NNW,327,0.0,0.0,69,0.00,,,0.00,,2013-01-10 03:22:00,
2013-01-09 22:33:00,34.0,26.0,30.31,NNW,327,0.0,0.0,72,0.00,,,0.00,,2013-01-10 03:33:00,
2013-01-09 22:42:00,34.0,26.0,30.31,NNW,327,0.0,0.0,72,0.00,,,0.00,,2013-01-10 03:42:00,
2013-01-09 22:53:00,33.0,25.0,30.32,North,9,0.0,0.0,72,0.00,,,0.00,,2013-01-10 03:53:00,
2013-01-09 23:02:00,33.0,25.0,30.33,North,9,0.0,0.0,71,0.00,,,0.00,,2013-01-10 04:02:00,
2013-01-09 23:12:00,33.0,25.0,30.33,North,9,0.0,0.0,71,0.00,,,0.00,,2013-01-10 04:12:00,
2013-01-09 23:22:00,32.0,24.0,30.34,North,9,0.0,0.0,72,0.00,,,0.00,,2013-01-10 04:22:00,
2013-01-09 23:32:00,32.0,24.0,30.35,North,9,0.0,0.0,73,0.00,,,0.00,,2013-01-10 04:32:00,
2013-01-09 23:43:00,32.0,24.0,30.35,North,9,0.0,0.0,73,0.00,,,0.00,,2013-01-10 04:43:00,
2013-01-09 23:53:00,31.0,24.0,30.36,North,9,0.0,0.0,75,0.00,,,0.00,,2013-01-10 04:53:00,